Weather in Nizhnyaya Kalinovka

Russia / Oryol Oblast     53˚03′17″N   36˚13′32″E
temp.,
°C
wind,
m/s
gust,
m/s
humid.,
%
clouds,
%
prec.,
mm/h
press.,
hPa
HPBL,
m
17 january, sun
sun1700:00−16˚w51095100 0.3 1012375
03:00−16˚wnw4896100 0.7 1012390
06:00−17˚w3697100 0.4 1012177
09:00−15˚wnw3596100 0.8 1013251
12:00−14˚nnw2395100 0.7 1015319
15:00−15˚n2394100 1.1 1015260
18:00−17˚nne229795 0.1 101727
21:00−20˚nne339973 0.1 101825
18 january, mon
mon1800:00−22˚ene229991 0.0 101920
03:00−22˚ene119895 0.0 101920
06:00−22˚nne2297100 0.0 101921
09:00−21˚ne2396100 0.0 101951
12:00−18˚ne1191100 0.0 1020191
15:00−18˚nne1292100 0.0 1019224
18:00−19˚nne1296100 0.0 101924
21:00−19˚nnw119898 0.1 102020
19 january, tue
tue1900:00−22˚nnw1110090 0.0 101920
03:00−23˚nw1110074 0.0 102020
06:00−24˚nw129987 0.0 101920
09:00−24˚w119989 0.1 102020
12:00−20˚wnw129779 0.0 1020117
15:00−19˚w239681 0.0 1019153
18:00−21˚w2298100 0.0 101920
21:00−18˚w2397100 0.1 102082
20 january, wed
wed2000:00−20˚w339987 0.1 102025
03:00−22˚w339978 0.1 102122
06:00−22˚w239855 0.0 102221
09:00−22˚w229854 0.0 102320
12:00−18˚wsw239656 0.0 1023118
15:00−17˚sw239550 0.0 1024110
18:00−19˚sw23940 0.0 102520
21:00−19˚ssw34950 0.0 102534
21 january, thu
thu2100:00−19˚ssw34940 0.0 102559
03:00−19˚s47940 0.0 1025115
06:00−18˚s512903 0.0 1024198
09:00−15˚s6149229 0.0 1023277
12:00−11˚ssw8149499 0.0 1021411
15:00−7˚ssw81694100 0.4 1019547
18:00−4˚sw81693100 0.3 1017630
21:00−1˚sw81592100 0.3 1016698